Location: Brienzwiler
(46.7508°N, 8.1014°E)
Time: 01:40:50
(UTC+00:00)

Cosmos 1943 Rocket - Pass Details

Date: 05 July 2020
Orbit: 811 x 845 km, 71.0° (Epoch: 10 August)

Event Time Altitude Azimuth Distance (km) Brightness Sun altitude
Rises 22:53:18 0° 336° (NNW) 3,415 6.8 -20.0°
Reaches altitude 10° 22:55:52 10° 342° (NNW) 2,476 5.8 -20.1°
Maximum altitude 23:01:21 47° 56° (NE) 1,105 2.9 -20.2°
Enters shadow 23:04:43 22° 120° (ESE) 1,753 3.5 -20.3°
